Location: Ripley
(48.3812°N, 115.4473°W)
Time: 10:06:55
(UTC+00:00)

CAS-6 - Pass Details

Date: 03 July 2022
Orbit: 613 x 634 km, 97.9° (Epoch: 14 August)

Event Time Altitude Azimuth Distance (km) Brightness Sun altitude
Exits shadow 04:26:33 - 110° (ESE) 2,442 ? -5.9°
Reaches altitude 10° 04:28:05 10° 97° (E) 2,001 ? -6.1°
Maximum altitude 04:30:43 16° 60° (ENE) 1,641 ? -6.4°
Drops below altitude 10° 04:33:20 10° 22° (NNE) 2,002 ? -6.7°
Sets 04:36:15 0° 1° (N) 2,909 ? -7.0°
